WetterOnline ( https://www.wetteronline.de )

Wetter aktuell Glaitenhof

Aktuelles Wetter: Kaisersbach-Cronhütte (489m)

6-stündlich | Neueste Meldungen
Ortszeit Temperatur Wetter
Sa, 15.08. 8:00 15.9° C bedeckt
Sa, 15.08. 2:00 16.8° C bedeckt
Fr, 14.08. 20:00 22.7° C wolkig
Fr, 14.08. 14:00 21.5° C bewölkt
Fr, 14.08. 8:00 19.0° C wolkig
Fr, 14.08. 2:00 18.0° C Sprühregen
Do, 13.08. 20:00 19.4° C wolkig
Do, 13.08. 14:00 20.4° C leichter Regen
Ortszeit Temperatur Wetter
Sa, 15.08. 10:00 20.8° C wolkig
Sa, 15.08. 9:50 20.8° C wolkig
Sa, 15.08. 9:40 20.5° C bedeckt
Sa, 15.08. 9:30 19.9° C bedeckt
Sa, 15.08. 9:20 19.9° C bedeckt
Sa, 15.08. 9:10 20.1° C bedeckt
Sa, 15.08. 9:00 18.9° C bedeckt
Sa, 15.08. 8:30 17.5° C bedeckt
Sa, 15.08. 8:00 15.9° C bedeckt
Sa, 15.08. 7:30 15.7° C wolkig
Sa, 15.08. 7:00 14.5° C fast wolkenlos
Sa, 15.08. 6:30 14.8° C wolkenlos
Ortszeit Relative Feuchte Sichtweite
Sa, 15.08. 8:00 96% 18 km
Sa, 15.08. 2:00 95% 28 km
Fr, 14.08. 20:00 65% 50 km
Fr, 14.08. 14:00 72% 50 km
Fr, 14.08. 8:00 90% 27 km
Fr, 14.08. 2:00 98% 9 km
Do, 13.08. 20:00 93% 22 km
Do, 13.08. 14:00 87% 23 km
Ortszeit Relative Feuchte Sichtweite
Sa, 15.08. 10:00 79% 50 km
Sa, 15.08. 9:50 79% -
Sa, 15.08. 9:40 79% -
Sa, 15.08. 9:30 81% 45 km
Sa, 15.08. 9:20 81% -
Sa, 15.08. 9:10 84% -
Sa, 15.08. 9:00 89% 30 km
Sa, 15.08. 8:30 93% 24 km
Sa, 15.08. 8:00 96% 18 km
Sa, 15.08. 7:30 96% 17 km
Sa, 15.08. 7:00 99% 2.5 km
Sa, 15.08. 6:30 99% 13 km
Ortszeit Niederschlagsmenge Niederschlagsart
Sa, 15.08. 8:00 0.1 l/m2 in 12 Std. -
Sa, 15.08. 2:00 0.1 l/m2 in 6 Std. Regen
Fr, 14.08. 20:00 0.1 l/m2 in 12 Std. -
Fr, 14.08. 14:00 0.1 l/m2 in 6 Std. Regen
Fr, 14.08. 8:00 0.1 l/m2 in 12 Std. Regen
Fr, 14.08. 2:00 0.1 l/m2 in 6 Std. Regen
Do, 13.08. 20:00 4 l/m2 in 12 Std. Regen
Do, 13.08. 14:00 0.1 l/m2 in 6 Std. Regen
Ortszeit Niederschlagsmenge Niederschlagsart
Sa, 15.08. 10:00 0.0 l/m2 in 1 Std. -
Sa, 15.08. 9:50 keine Meldung -
Sa, 15.08. 9:40 keine Meldung -
Sa, 15.08. 9:30 0.0 l/m2 in 1 Std. -
Sa, 15.08. 9:20 keine Meldung -
Sa, 15.08. 9:10 keine Meldung -
Sa, 15.08. 9:00 0.0 l/m2 in 1 Std. -
Sa, 15.08. 8:30 0.0 l/m2 in 1 Std. -
Sa, 15.08. 8:00 0.0 l/m2 in 1 Std. -
Sa, 15.08. 7:30 0.0 l/m2 in 1 Std. -
Sa, 15.08. 7:00 0.0 l/m2 in 1 Std. -
Sa, 15.08. 6:30 0.0 l/m2 in 1 Std. -
Ortszeit Stärke Spitze Richtung
km/h Bft. km/h Grad Sektor
Sa, 15.08. 8:00 0 0 4 - -
Sa, 15.08. 2:00 0 0 18 - -
Fr, 14.08. 20:00 4 1 25 260° W
Fr, 14.08. 14:00 9 2 20 260° W
Fr, 14.08. 8:00 2 1 7 110° O
Fr, 14.08. 2:00 0 0 11 - -
Do, 13.08. 20:00 4 1 14 140° SO
Do, 13.08. 14:00 4 1 29 130° SO
Ortszeit Stärke Spitze Richtung
km/h Bft. km/h Grad Sektor
Sa, 15.08. 10:00 7 2 14 220° SW
Sa, 15.08. 9:50 7 2 - 220° SW
Sa, 15.08. 9:40 7 2 - 240° SW
Sa, 15.08. 9:30 7 2 14 260° W
Sa, 15.08. 9:20 7 2 - 260° W
Sa, 15.08. 9:10 6 1 - 260° W
Sa, 15.08. 9:00 4 1 11 200° S
Sa, 15.08. 8:30 2 1 6 110° O
Sa, 15.08. 8:00 0 0 4 - -
Sa, 15.08. 7:30 0 0 4 - -
Sa, 15.08. 7:00 2 1 4 40° NO
Sa, 15.08. 6:30 2 1 4 260° W
Ortszeit Untergrenze Bedeckung Gattung
total tief tief mittel hoch
Sa, 15.08. 8:00 3900 m 8/8 8/8 - - -
Sa, 15.08. 2:00 3300 m 8/8 8/8 - - -
Fr, 14.08. 20:00 1500 m 7/8 1/8 - - -
Fr, 14.08. 14:00 1800 m 8/8 7/8 - - -
Fr, 14.08. 8:00 3300 m 5/8 5/8 - - -
Fr, 14.08. 2:00 2400 m 8/8 8/8 - - -
Do, 13.08. 20:00 1800 m 8/8 1/8 - - -
Do, 13.08. 14:00 60 m 8/8 8/8 - - -
Ortszeit Bedeckungsgrad in Achtel und Wolkenuntergrenze
Sa, 15.08. 10:00 1(2700m) 8(3900m)
Sa, 15.08. 9:50 1(2700m) 8(3900m)
Sa, 15.08. 9:40 8(3900m)
Sa, 15.08. 9:30 8(3900m)
Sa, 15.08. 9:20 8(3900m)
Sa, 15.08. 9:10 1(3000m) 8(3900m)
Sa, 15.08. 9:00 4(3000m) 8(3900m)
Sa, 15.08. 8:30 1(3000m) 8(3900m)
Sa, 15.08. 8:00 8(3900m)
Sa, 15.08. 7:30 6(3600m)
Sa, 15.08. 7:00 1(3900m)
Sa, 15.08. 6:30 keine Wolken
Ortszeit Luftdruck NN (hPa) Tendenz (hPa in 3 Std.)
Sa, 15.08. 8:00 1016 + 0,3
Sa, 15.08. 2:00 1016 + 0,3
Fr, 14.08. 20:00 1013 + 0,1
Fr, 14.08. 14:00 1015 0,0
Fr, 14.08. 8:00 1014 + 0,2
Fr, 14.08. 2:00 1015 - 0,4
Do, 13.08. 20:00 1014 - 1,3
Do, 13.08. 14:00 1016 + 2,0
Ortszeit Luftdruck NN (hPa) Tendenz (hPa in 3 Std.)
Sa, 15.08. 10:00 1015 + 0,4
Sa, 15.08. 9:50 1015 keine Meldung
Sa, 15.08. 9:40 1015 keine Meldung
Sa, 15.08. 9:30 1015 + 0,7
Sa, 15.08. 9:20 1015 keine Meldung
Sa, 15.08. 9:10 1015 keine Meldung
Sa, 15.08. 9:00 1015 + 0,7
Sa, 15.08. 8:30 1015 + 0,5
Sa, 15.08. 8:00 1016 + 0,3
Sa, 15.08. 7:30 1016 + 0,1
Sa, 15.08. 7:00 1016 0,0
Sa, 15.08. 6:30 1015 - 0,4
Ortszeit Schneehöhe (cm)
Sa, 15.08. 8:00 -
Sa, 15.08. 2:00 -
Fr, 14.08. 20:00 -
Fr, 14.08. 14:00 -
Fr, 14.08. 8:00 -
Fr, 14.08. 2:00 -
Do, 13.08. 20:00 -
Do, 13.08. 14:00 -
Ortszeit Schneehöhe (cm)
Sa, 15.08. 10:00 -
Sa, 15.08. 9:50 -
Sa, 15.08. 9:40 -
Sa, 15.08. 9:30 -
Sa, 15.08. 9:20 -
Sa, 15.08. 9:10 -
Sa, 15.08. 9:00 -
Sa, 15.08. 8:30 -
Sa, 15.08. 8:00 -
Sa, 15.08. 7:30 -
Sa, 15.08. 7:00 -
Sa, 15.08. 6:30 -
Link zu dieser Seite / Seite empfehlen

Das Wetter in ...